Location: Hains Lake
(37.8540°N, 99.8578°W)
Time: 19:51:42
(UTC+00:00)

Vanguard 1 - Pass Details

Date: 03 December 2022
Orbit: 650 x 3831 km, 34.2° (Epoch: 05 February)

Event Time Altitude Azimuth Distance (km) Brightness Sun altitude
Exits shadow 10:36:25 21° 188° (S) 2,725 12.2 -35.2°
Drops below altitude 10° 10:41:54 10° 157° (SSE) 4,112 13.5 -34.1°
Sets 10:47:20 0° 145° (SE) 5,744 14.5 -33.1°
